1363737625154,1.80355
1363737685154,1.78325
1363737745154,1.81541
1363737805154,1.79605
1363737865154,1.78909
1363737925154,1.79088
1363737985154,1.79526
1363738045154,1.79185
1363738105154,1.78305
1363738165154,1.76329
1363738225154,1.77539
1363738285154,1.77842
1363738345154,1.84747
1363738405154,1.80794
1363738465154,1.78723
1363738525154,1.79245
1363738585154,1.78864
1363738645154,1.78257
1363738705154,1.79740
1363738765154,1.78015
1363738825154,1.79032
1363738885154,1.79129
1363738945154,1.81587
1363739005154,1.78701
1363739065154,1.79692
1363739125154,1.79148
1363739185154,1.81999
1363739245154,1.76443
1363739305154,1.80105
1363739365154,1.78887
1363739425154,1.78368
1363739485154,1.80862
1363739545154,1.77214
1363739605154,1.78504
1363739665154,1.77941
1363739725154,1.77901
1363739785154,1.79864
1363739845154,1.79278
1363739905154,1.77988
1363739965154,1.77743
1363740025154,1.79189
1363740085154,1.80768
1363740145154,1.76978
1363740205154,1.77391
1363740265154,1.79474
1363740325154,1.76581
1363740385154,2.10408
1363740445154,1.77896
1363740505154,1.75334
1363740565154,1.79316
1363740625154,1.78730
1363740685154,1.78705
1363740745154,1.78530
1363740805154,1.77012
1363740865154,1.80400
1363740925154,1.77198
1363740985154,1.79701
1363741045154,1.79901
1363741105154,1.78550
1363741165154,1.79557
1363741225166,1.80023
1363741285166,1.80562
1363741345166,1.78513
1363741405166,1.78405
1363741465166,1.79652
1363741525166,1.81209
1363741585166,1.83854
1363741645166,1.82976
1363741705166,1.80911
1363741765166,1.83772
1363741825166,1.81411
1363741885166,1.82189
1363741945166,1.82707
1363742005166,1.81622
1363742065166,1.81058
1363742125166,1.83051
1363742185166,1.83887
1363742245166,1.82972
1363742305166,1.85288
1363742365166,1.86037
1363742425166,1.84384
1363742485166,1.82628
1363742545166,1.82191
1363742605166,1.96367
1363742665166,1.84833
1363742725166,1.85309
1363742785166,1.84931
1363742845166,1.83181
1363742905166,1.84208
1363742965166,1.82116
1363743025166,1.85590
1363743085166,1.85278
1363743145166,1.82603
1363743205166,1.85470
1363743265166,1.84658
1363743325166,1.82889
1363743385166,1.84300
1363743445166,1.83916
1363743505166,1.84347
1363743565166,1.84457
1363743625166,1.84391
1363743685166,1.85780
1363743745166,1.82993
1363743805166,1.82010
1363743865166,1.83075
1363743925166,1.83124
1363743985166,1.84366
1363744045166,1.85750
1363744105166,1.83170
1363744165166,1.83440
1363744225166,1.84552
1363744285166,1.83038
1363744345166,1.84624
1363744405166,1.85023
1363744465166,1.85450
1363744525166,1.85169
1363744585166,1.83085
1363744645166,1.84786
1363744705166,1.83532
1363744765166,1.82116
1363744825178,1.83631
1363744885178,1.83880
1363744945178,1.83021
1363745005178,1.85324
1363745065178,1.85231
1363745125178,1.83181
1363745185178,1.85937
1363745245178,1.85810
1363745305178,1.82590
1363745365178,1.83206
1363745425178,1.84806
1363745485178,1.84090
1363745545178,1.82493
1363745605178,1.81277
1363745665178,1.83381
1363745725178,1.84756
1363745785178,1.84228
1363745845178,1.83344
1363745905178,1.82970
1363745965178,1.83241
1363746025178,1.85244
1363746085178,1.83472
1363746145178,1.84278
1363746205178,1.82892
1363746265178,1.82491
1363746325178,1.83652
1363746385178,1.86021
1363746445178,1.83195
1363746505178,1.82431
1363746565178,1.83984
1363746625178,1.83058
1363746685178,1.84603
1363746745178,1.83240
1363746805178,1.82714
1363746865178,1.83710
1363746925178,1.82483
1363746985178,1.83340
1363747045178,1.85256
1363747105178,1.84116
1363747165178,1.84148
1363747225178,1.83815
1363747285178,1.84712
1363747345178,1.82179
1363747405178,1.84830
1363747465178,1.83057
1363747525178,1.83488
1363747585178,1.85721
1363747645178,1.86030
1363747705178,1.85474
1363747765178,1.85720
1363747825178,1.84645
1363747885178,1.87159
1363747945178,1.85020
1363748005178,1.83622
1363748065178,1.84014
1363748125178,1.86177
1363748185178,1.84357
1363748245178,1.84916
1363748305178,1.82021
1363748365178,1.84195
1363748425189,1.83676
1363748485189,1.85813
1363748545189,1.86082
1363748605189,1.84770
1363748665189,1.84188
1363748725189,1.83380
1363748785189,1.85969
1363748845189,1.95853
1363748905189,1.85807
1363748965189,1.83514
1363749025189,1.86011
1363749085189,1.83254
1363749145189,1.85290
1363749205189,1.86038
1363749265189,1.86744
1363749325189,1.84428
1363749385189,1.82171
1363749445189,1.83961
1363749505189,1.86269
1363749565189,1.84128
1363749625189,1.86687
1363749685189,1.85902
1363749745189,1.87283
1363749805189,1.85000
1363749865189,1.85150
1363749925189,1.84586
1363749985189,1.85123
1363750045189,1.84559
1363750105189,1.84639
1363750165189,1.84136
1363750225189,1.85314
1363750285189,1.82649
1363750345189,1.87354
1363750405189,1.82092
1363750465189,1.83921
1363750525189,1.84344
1363750585189,1.85258
1363750645189,1.84708
1363750705189,1.87310
1363750765189,1.83835
1363750825189,1.84116
1363750885189,1.85351
1363750945189,1.84033
1363751005189,1.83329
1363751065189,1.86012
1363751125189,1.83517
1363751185189,1.84003
1363751245189,1.82816
1363751305189,1.84697
1363751365189,1.86671
1363751425189,1.83754
1363751485189,1.82979
1363751545189,1.83999
1363751605189,1.84011
1363751665189,1.84899
1363751725189,1.85528
1363751785189,1.86725
1363751845189,1.84845
1363751905189,1.85375
1363751965189,1.82903
1363752025201,1.84310
1363752085201,1.84893
1363752145201,1.84783
1363752205201,1.85791
1363752265201,1.83325
1363752325201,1.85422
1363752385201,1.85006
1363752445201,1.86853
1363752505201,1.85593
1363752565201,1.84645
1363752625201,1.84939
1363752685201,1.87289
1363752745201,1.86020
1363752805201,1.84574
1363752865201,1.84844
1363752925201,1.83166
1363752985201,1.84551
1363753045201,1.84728
1363753105201,1.83153
1363753165201,1.83076
1363753225201,1.82879
1363753285201,1.85754
1363753345201,1.85488
1363753405201,1.84769
1363753465201,1.85044
1363753525201,1.83411
1363753585201,1.84615
1363753645201,1.81803
1363753705201,1.84776
1363753765201,1.82900
1363753825201,1.82459
1363753885201,1.83109
1363753945201,1.85813
1363754005201,1.85356
1363754065201,1.85432
1363754125201,1.82928
1363754185201,1.83492
1363754245201,1.87435
1363754305201,1.81444
1363754365201,1.82746
1363754425201,1.81617
1363754485201,1.80433
1363754545201,1.83481
1363754605201,1.81982
1363754665201,1.83362
1363754725201,1.81986
1363754785201,1.84045
1363754845201,1.83202
1363754905201,1.81982
1363754965201,1.82118
1363755025201,1.83336
1363755085201,1.82067
1363755145201,1.82371
1363755205201,1.81973
1363755265201,1.79622
1363755325201,1.81376
1363755385201,1.82412
1363755445201,1.80674
1363755505201,1.80173
1363755565201,1.81902
1363755625213,1.80351
1363755685213,1.80906
1363755745213,1.81574
1363755805213,1.82250
1363755865213,1.80606
1363755925213,1.81635
1363755985213,1.81532
1363756045213,1.78380
1363756105213,1.80534
1363756165213,1.79281
1363756225213,1.79545
1363756285213,1.71140
1363756825213,1.78608
1363756885213,1.73383
1363756945213,1.80194
1363757005213,1.80907
1363757065213,1.80154
1363757125213,1.78828
1363757185213,1.77738
1363757245213,1.80507
1363757305213,1.80411
1363757365213,1.79387
1363757425213,1.80554
1363757485213,1.79746
1363757545213,1.79502
1363757605213,1.78009
1363757665213,1.83781
1363757725213,1.81935
1363757785213,1.79118
1363757845213,1.78391
1363757905213,1.81880
1363757965213,1.81856
1363758025213,1.77186
1363758085213,1.81240
1363758145213,1.79788
1363758205213,1.80965
1363758265213,1.81333
1363758325213,1.80802
1363758385213,1.81484
1363758445213,1.81858
1363758505213,1.81993
1363758565213,1.79332
1363758625213,1.81059
1363758685213,1.81185
1363758745213,1.85662
1363758805213,1.82221
1363758865213,1.84688
1363758925213,1.83890
1363758985213,1.80381
1363759045213,1.83420
1363759105213,1.82732
1363759165213,1.80797
1363759225224,1.79732
1363759285224,1.83878
1363759345224,1.82044
1363759405224,1.81178
1363759465224,1.81117
1363759525224,1.78520
1363759585224,1.81107
1363759645224,1.80995
1363759705224,1.78996
1363759765224,1.80474
1363759825224,1.80093
1363759885224,1.81245
1363759945224,1.81246
1363760005224,1.81280
1363760065224,1.80664
1363760125224,1.82216
1363760185224,1.85168
1363760245224,1.81512
1363760305224,1.83344
1363760365224,1.79348
1363772965257,1.78264
1363773025257,1.73996
1363773085257,1.72379
1363773145257,1.70328
1363773205257,1.72387
1363773265257,1.71686
1363773325257,1.71948
1363773385257,1.72603
1363773445257,1.72777
1363773505257,1.72657
1363773565257,1.71755
1363773625268,1.75117
1363773685268,1.74101
1363773745268,1.73644
1363773805268,1.71421
1363773865268,1.68951
1363773925268,1.73762
1363773985268,1.70796
1363774045268,1.70620
1363774105268,1.71811
1363774165268,1.73104
1363774225268,1.71103
1363774285268,1.72923
1363774345268,1.72805
1363774405268,1.73221
1363774465268,1.75997
1363774525268,1.71782
1363774585268,1.75222
1363774645268,1.72555
1363774705268,1.73721
1363774765268,1.71684
1363774825268,1.73028
1363774885268,1.71546
1363774945268,1.71726
1363775005268,1.75419
1363775065268,1.74320
1363775125268,1.72800
1363775185268,1.70273
1363775245268,1.73035
1363775305268,1.71308
1363775365268,1.72183
1363775425268,1.72993
1363775485268,1.73235
1363775545268,1.70645
1363775605268,1.71384
1363775665268,1.70553
1363775725268,1.71310
1363775785268,1.73421
1363775845268,1.71246
1363775905268,1.71184
1363775965268,1.72924
1363776025268,1.72370
1363776085268,1.71455
1363776145268,1.73340
1363776205268,1.72720
1363776265268,1.74000
1363776325268,1.72764
1363776385268,1.74242
1363776445268,1.72228
1363776505268,1.72598
1363776565268,1.69945
1363776625268,1.72095
1363776685268,1.70582
1363776745268,1.72131
1363776805268,1.71494
1363776865268,1.70907
1363776925268,1.71503
1363776985268,1.71967
1363777045268,1.73112
1363777105268,1.70361
1363777165268,1.74327
1363777225280,1.72662
1363777285280,1.74383
1363777345280,1.74309
1363777405280,1.70347
1363777465280,1.72175
1363777525280,1.72053
1363777585280,1.73136
1363777645280,1.74473
1363777705280,1.70629
1363777765280,1.74761
1363777825280,1.73526
1363777885280,1.73245
1363777945280,1.72416
1363778005280,1.72612
1363778065280,1.72980
1363778125280,1.77263
1363778185280,1.73370
1363778245280,1.73251
1363778305280,1.73859
1363778365280,1.72252
1363778425280,1.72067
1363778485280,1.74096
1363778545280,1.72358
1363778605280,1.72071
1363778665280,1.73061
1363778725280,1.69358
1363778785280,1.69447
1363778845280,1.71522
1363778905280,1.72149
1363778965280,1.73052
1363779025280,1.70332
1363779085280,1.71219
1363779145280,1.70939
1363779205280,1.72209
1363779265280,1.72649
1363779325280,1.74198
1363779385280,1.72434
1363779445280,1.71186
1363779505280,1.71448
1363779565280,1.71128
1363779625280,1.75345
1363779685280,1.72841
1363779745280,1.73353
1363779805280,1.74405
1363779865280,1.70931
1363779925280,1.74603
1363779985280,1.73005
1363780045280,1.72034
1363780105280,1.72113
1363780165280,1.71806
1363780225280,1.74093
1363780285280,1.75225
1363780345280,1.73627
1363780405280,1.72986
1363780465280,1.70308
1363780525280,1.70740
1363780585280,1.73778
1363780645280,1.72703
1363780705280,1.71604
1363780765280,1.73431
1363780825292,1.73278
1363780885292,1.73237
1363780945292,1.73152
1363781005292,1.73890
1363781065292,1.72930
1363781125292,1.72734
1363781185292,1.71766
1363781245292,1.71847
1363781305292,1.73413
1363781365292,1.73417
1363781425292,1.72536
1363781485292,1.73074
1363781545292,1.71275
1363781605292,1.72997
1363781665292,1.74990
1363781725292,1.72691
1363781785292,1.71106
1363781845292,1.72246
1363781905292,1.74122
1363781965292,1.73223
1363782025292,1.74969
1363782085292,1.73516
1363782145292,1.72733
1363782205292,1.73730
1363782265292,1.72108
1363782325292,1.73855
1363782385292,1.74143
1363782445292,1.71531
1363782505292,1.73224
1363782565292,1.73530
1363782625292,1.72270
1363782685292,1.72029
1363782745292,1.71162
1363782805292,1.72881
1363782865292,1.70875
1363782925292,1.71982
1363782985292,1.72498
1363783045292,1.70417
1363783105292,1.71627
1363783165292,1.72450
1363783225292,1.75627
1363783285292,1.74312
1363783345292,1.72301
1363783405292,1.73745
1363783465292,1.71899
1363783525292,1.72823
1363783585292,1.71395
1363783645292,1.74399
1363783705292,1.71847
1363783765292,1.73792
1363783825292,1.73662
1363783885292,1.71836
1363783945292,1.71323
1363784005292,1.72961
1363784065292,1.72913
1363784125292,1.73519
1363784185292,1.72298
1363784245292,1.73705
1363784305292,1.72781
1363784365292,1.74348
1363784425304,1.72576
1363784485304,1.72836
1363784545304,1.73061
1363784605304,1.73995
1363784665304,1.74160
1363784725304,1.74858
1363784785304,1.71991
1363784845304,1.74217
1363784905304,1.74568
1363784965304,1.74608
1363785025304,1.76383
1363785085304,1.72905
1363785145304,1.73433
1363785205304,1.75108
1363785265304,1.74400
1363785325304,1.74367
1363785385304,1.72880
1363785445304,1.72001
1363785505304,1.77825
1363785565304,1.73584
1363785625304,1.73913
1363785685304,1.71285
1363785745304,1.72772
1363785805304,1.73159
1363785865304,1.75998
1363785925304,1.73036
1363785985304,1.71764
1363786045304,1.73766
1363786105304,1.72431
1363786165304,1.71930
1363786225304,1.73694
1363786285304,1.72059
1363786345304,1.72590
1363786405304,1.73930
1363786465304,1.72387
1363786525304,1.71490
1363786585304,1.69599
1363786645304,1.73042
1363786705304,1.73054
1363786765304,1.71470
1363786825304,1.73242
1363786885304,1.72135
1363786945304,1.73115
1363787005304,1.71682
1363787065304,1.71321
1363787125304,1.72807
1363787185304,1.73539
1363787245304,1.73022
1363787305304,1.70748
1363787365304,1.71638
1363787425304,1.71254
1363787485304,1.72886
1363787545304,1.75719
1363787605304,1.70629
1363787665304,1.72976
1363787725304,1.71997
1363787785304,1.75160
1363787845304,1.73370
1363787905304,1.71334
1363787965304,1.72520
1363788025315,1.71565
1363788085315,1.72895
1363788145315,1.72536
1363788205316,1.72142
1363788265316,1.76196
1363788325316,1.72308
1363788385316,1.72578
1363788445316,1.71954
1363788505316,1.74695
1363788565315,1.73922
1363788625315,1.74055
1363788685315,1.71459
1363788745315,1.73955
1363788805315,1.71591
1363788865315,1.74225
1363788925315,1.73845
1363788985315,1.71127
1363789045315,1.71470
1363789105315,1.72519
1363789165315,1.74484
1363789225315,1.71715
1363789285315,1.72141
1363789345315,1.69287
1363789405315,1.73272
1363789465315,1.72807
1363789525315,1.74703
1363789585316,1.70378
1363789645316,1.70590
1363789705316,1.72783
1363789765316,1.74512
1363789825316,1.69422
1363789885315,1.69944
1363789945315,1.72471
1363790005315,1.73123
1363790065315,1.74786
1363790125315,1.73134
1363790185315,1.73034
1363790245315,1.71876
1363790305315,1.72997
1363790365315,1.73314
1363790425315,1.70555
1363790485315,1.70600
1363790545315,1.73614
1363790605315,1.73936
1363790665315,1.72520
1363790725315,1.72165
1363790785315,1.70900
1363790845315,1.72286
1363790905316,1.72947
1363790965316,1.72786
1363791025316,1.71974
1363791085316,1.72955
1363791145316,1.72482
1363791205316,1.71309
1363791265315,1.73376
1363791325315,1.73326
1363791385315,1.72168
1363791445315,1.73749
1363791505315,1.76459
1363791565315,1.70636
1363791625327,1.72493
1363791685327,1.71563
1363791745327,1.71319
1363791805327,1.73474
1363791865327,1.73577
1363791925327,1.72947
1363791985327,1.70825
1363792045327,1.74367
1363792105327,1.73777
1363792165327,1.73097
1363792225327,1.73021
1363792285327,1.71669
1363792345327,1.71992
1363792405327,1.72645
1363792465327,1.73028
1363792525327,1.72483
1363792585327,1.72275
1363792645327,1.71254
1363792705327,1.73518
1363792765327,1.73754
1363792825327,1.70677
1363792885327,1.73857
1363792945327,1.71911
1363793005327,1.74308
1363793065327,1.71795
1363793125327,1.72107
1363793185327,1.70964
1363793245327,1.73314
1363793305327,1.71676
1363793365327,1.70527
1363793425327,1.72340
1363793485327,1.74398
1363793545327,1.72916
1363793605327,1.72385
1363793665327,1.73733
1363793725327,1.72248
1363793785327,1.73618
1363793845327,1.73815
1363793905327,1.73661
1363793965327,1.73693
1363794025327,1.72621
1363794085327,1.75509
1363794145327,1.75686
1363794205327,1.73171
1363794265327,1.71733
1363794325327,1.72928
1363794385327,1.73229
1363794445327,1.71542
1363794505327,1.74006
1363794565327,1.73478
1363794625327,1.76515
1363794685327,1.72649
1363794745327,1.71579
1363794805327,1.74657
1363794865327,1.72710
1363794925327,1.73432
1363794985327,1.72571
1363795045327,1.74434
1363795105327,1.70910
1363795165327,1.63726
1363795225339,1.73697
1363795285339,1.73416
1363795345339,1.73211
1363795405339,1.73209
1363795465339,1.73079
1363795525339,1.72818
1363795585339,1.72981
1363795645339,1.73659
1363795705339,1.73858
1363795765339,1.75210
1363795825339,1.75114
1363795885339,1.73321
1363795945339,1.74289
1363796005339,1.73029
1363796065339,1.70814
1363796125339,1.75771
1363796185339,1.89455
1363796245339,1.74229
1363796305339,1.72530
1363796365339,1.74339
1363796425339,1.74570
1363796485339,1.76385
1363796545339,1.75399
1363796605339,1.75223
1363796665339,1.74547
1363796725339,1.73759
1363796785339,1.73121
1363796845339,1.73960
1363796905339,1.74296
1363796965339,1.75948
1363797025339,1.75347
1363797085339,1.75135
1363797145339,1.74098
1363797205339,1.74826
1363797265339,1.75433
1363797325339,1.74923
1363797385339,1.75721
1363797445339,1.78359
1363797505339,1.76997
1363797565339,1.79448
1363797625339,1.76576
1363797685339,1.77093
1363797745339,1.74992
1363797805339,1.76478
1363797865339,1.75269
1363797925339,1.74570
1363797985339,1.77498
1363798045339,1.75310
1363798105339,1.75305
1363798165339,1.75024
1363798225339,1.73790
1363798285339,1.76847
1363798345339,1.74838
1363798405339,1.76860
1363798465339,1.73766
1363798525339,1.73080
1363798585339,1.75865
1363798645339,1.75255
1363798705339,1.76472
1363798765339,1.74752
1363798825350,1.77069
1363798885350,1.78098
1363798945350,1.76424
1363799005350,1.78235
1363799065350,1.75552
1363799125350,1.77059
1363799185350,1.76365
1363799245350,1.75276
1363799305350,1.74114
1363799365350,1.76788
1363799425350,1.73738
1363799485350,1.74122
1363799545350,1.75797
1363799605350,1.77094
1363799665350,1.76345
1363799725350,1.75025
1363799785350,1.75360
1363799845350,1.77681
1363799905350,1.76452
1363799965350,1.76729
1363800025350,1.76983
1363800085350,1.77268
1363800145350,1.76843
1363800205350,1.79926
1363800265350,1.71317
1363800325350,1.78378
1363800385350,1.79948
1363800445350,1.75541
1363800505350,1.77128
1363800565350,1.78523
1363800625350,1.78632
1363800685350,1.75938
1363800745350,1.76628
1363800805350,1.78704
1363800865350,1.78396
1363800925350,1.75016
1363800985350,1.79554
1363801045350,1.75532
1363801105350,1.78674
1363801165350,1.78073
1363801225350,1.75026
1363801285350,1.77630
1363801345350,1.78598
1363801405350,1.77000
1363801465350,1.77529
1363801525350,1.79410
1363801585350,1.77392
1363801645350,1.78000
1363801705350,1.78193
1363801765350,1.78679
1363801825350,1.86921
1363801885350,1.76604
1363801945350,1.74792
1363802005350,1.76878
1363802065350,1.77810
1363802125350,1.77603
1363802185350,1.77086
1363802245350,1.76137
1363802305350,1.80028
1363802365350,1.76659
1363802425362,1.80079
1363802485362,1.82190
1363802545362,1.79067
1363802605362,1.77954
1363802665362,1.81265
1363802725362,1.79632
1363802785362,1.81581
1363802845362,1.81103
1363802905362,1.80425
1363802965362,1.80730
1363803025362,1.78000
1363803085362,1.81009
1363803145362,1.79252
1363803205362,1.77895
1363803265362,1.80596
1363803325362,1.84407
1363803385362,1.80264
1363803445362,1.80077
1363803505362,1.82111
1363803565362,1.78026
1363803625362,1.78325
1363803685362,1.73220
1363803745362,1.78687
1363803805362,1.80344
1363803865362,1.79073
1363803925362,1.77505
1363803985362,1.77891
1363804045362,1.79951
1363804105362,1.79439
1363804165362,1.75999
1363804225362,1.78265
1363804285362,1.78616
1363804345362,1.81291
1363804405362,1.80532
1363804465362,1.80646
1363804525362,1.80714
1363804585362,1.81420
1363804645362,1.80399
1363804705362,1.80980
1363804765362,1.81077
1363804825362,1.79488
1363804885362,1.80917
1363804945362,1.78639
1363805005362,1.77889
1363805065362,1.77165
1363805125362,1.78999
1363805185362,1.84308
1363805245362,1.77493
1363805305362,1.80141
1363805365362,1.75744
1363805425362,1.77265
1363805485362,1.79091
1363805545362,1.77597
1363805605362,1.78903
1363805665362,1.76609
1363805725362,1.78954
1363805785362,1.80125
1363805845362,1.79197
1363805905362,1.79040
1363805965362,1.80119
1363806025373,1.80739
1363806085373,1.83107
1363806145373,1.85952
1363806205373,1.80028
1363806265373,1.80223
1363806325373,1.78912
1363806385373,1.82541
1363806445373,1.77846
1363806505373,1.80159
1363806565373,1.82280
1363806625373,1.79258
1363806685373,1.81008
1363806745373,1.80533
1363806805373,1.78820
1363806865373,1.82137
1363806925373,1.75943
1363806985373,1.78644
1363807045373,1.79003
1363807105373,1.80002
1363807165373,1.73766
1363807225373,1.79135
1363807285373,1.78000
1363807345373,1.79086
1363807405373,1.80754
1363807465373,1.87227
1363807525373,1.80878
1363807585373,1.77111
1363807645373,1.80279
1363807705373,1.81078
1363807765373,1.80098
1363807825373,1.77237
1363807885373,1.78794
1363807945373,1.80663
1363808005373,1.81068
1363808065373,1.80219
1363808125373,1.76060
1363808185373,1.78273
1363808245373,1.78457
1363808305373,1.81289
1363808365373,1.77186
1363808425373,1.74466
1363808485373,1.77731
1363808545373,1.81546
1363808605373,1.80498
1363808665373,1.78461
1363808725373,1.75219
1363808785373,1.76920
1363808845373,1.79553
1363808905373,1.79585
1363808965373,1.77434
1363809025373,1.76880
1363809085373,1.78712
1363809145373,1.81225
1363809205373,1.81125
1363809265373,1.78366
1363809325373,1.79808
1363809385373,1.77566
1363809445373,1.80887
1363809505373,1.80994
1363809565373,1.80704
1363809625384,1.82028
1363809685384,1.80230
1363809745384,1.75661
1363809805384,1.78698
1363809865384,1.78831
1363809925384,1.80707
1363809985384,1.80458
1363810045384,1.80692
1363810105384,1.77247
1363810165384,1.82563
1363810225384,1.76319
1363810285384,1.80478
1363810345384,1.78936
1363810405384,1.79218
1363810465384,1.78234
1363810525384,1.79895
1363810585384,1.79222
1363810645384,1.79254
1363810705384,1.77300
1363810765384,1.77105
1363810825384,1.79437
1363810885384,1.77873
1363810945384,1.77913
1363811005384,1.79905
1363811065384,1.81237
1363811125384,1.77391
1363811185384,1.77917
1363811245384,1.79505
1363811305384,1.79117
1363811365384,1.78122
1363811425384,1.78381
1363811485384,1.76324
1363811545384,1.80486
1363811605384,1.77599
1363811665384,1.77041
1363811725384,1.77217
1363811785384,1.77319
1363811845384,1.80970
1363811905384,1.75915
1363811965384,1.78761
1363812025384,1.76110
1363812085384,1.76530
1363812145384,1.77833
1363812205384,1.78414
1363812265384,1.76607
1363812325384,1.75980
1363812385384,1.77152
1363812445384,1.78273
1363812505384,1.76749
1363812565384,1.75229
1363812625384,1.77200
1363812685384,1.77297
1363812745384,1.76375
1363812805384,1.76420
1363812865384,1.75423
1363812925384,1.74324
1363812985384,1.78529
1363813045384,1.73464
1363813105384,1.76798
1363813165384,1.76378
1363813225396,1.75264
1363813285396,1.80913
1363813345396,1.79507
1363813405396,1.63520
1363813465396,1.78348
1363813525396,1.74085
1363813585396,1.79410
1363813645396,1.75808
1363813705396,1.76884
1363813765396,1.76747
1363813825396,1.75875
1363813885396,1.75611
1363813945396,1.78459
1363814005396,1.73753
1363814065396,1.74667
1363814125396,1.77253
1363814185396,1.72157
1363814245396,1.76238
1363814305396,1.73737
1363814365396,1.74876
1363814425396,1.74006
1363814485396,1.76677
1363814545396,1.73061
1363814605396,1.74260
1363814665396,1.77010
1363814725396,1.73984
1363814785396,1.76233
1363814845396,1.74191
1363814905396,1.73228
1363814965396,1.73552
1363815025396,1.71588
1363815085396,1.73577
1363815145396,1.71689
1363815205396,1.72543
1363815265396,1.74743
1363815325396,1.70570
1363815385396,1.75157
1363815445396,1.78228
1363815505396,1.69722
1363815565396,1.74873
1363815625396,1.72564
1363815685396,1.72960
1363815745396,1.73122
1363815805396,1.69351
1363815865396,1.72430
1363815925396,1.71491
1363815985396,1.72307